ZSMUL FAGM-FBSK

Flight info

Callsign ZSMUL
Flight time N/A
Altitude 14000
Route DCT
Aircraft DC6/M-SDFGRWY/S

Departure

Time 2026-04-26 07:31
Airport Rand Airport (FAGM)

Arrival

Time N/A
Airport Sir Seretse Khama International Airport (FBSK)
Time Latitude Longitude Altitude Speed Heading
2026-04-26 07:19 -26.24037 28.15168 5495 ft 0 kts 195°
2026-04-26 07:23 -26.24038 28.15167 5496 ft 0 kts 195°
2026-04-26 07:24 -26.24041 28.15166 5496 ft 1 kts 203°
2026-04-26 07:24 -26.24049 28.15160 5496 ft 1 kts 222°
2026-04-26 07:25 -26.24050 28.15159 5496 ft 0 kts 222°
2026-04-26 07:25 -26.24056 28.15153 5495 ft 2 kts 224°
2026-04-26 07:25 -26.24076 28.15139 5495 ft 6 kts 197°
2026-04-26 07:25 -26.24129 28.15148 5496 ft 8 kts 157°
2026-04-26 07:26 -26.24161 28.15180 5495 ft 4 kts 108°
2026-04-26 07:26 -26.24164 28.15203 5495 ft 3 kts 91°
2026-04-26 07:26 -26.24163 28.15259 5495 ft 11 kts 89°
2026-04-26 07:26 -26.24161 28.15368 5495 ft 16 kts 89°
2026-04-26 07:27 -26.24160 28.15489 5495 ft 15 kts 89°
2026-04-26 07:27 -26.24158 28.15598 5495 ft 12 kts 88°
2026-04-26 07:27 -26.24162 28.15666 5495 ft 4 kts 120°
2026-04-26 07:27 -26.24175 28.15683 5495 ft 4 kts 134°
2026-04-26 07:28 -26.24212 28.15725 5496 ft 9 kts 135°
2026-04-26 07:28 -26.24236 28.15734 5497 ft 4 kts 212°
2026-04-26 07:28 -26.24245 28.15706 5497 ft 0 kts 269°
2026-04-26 07:29 -26.24245 28.15705 5497 ft 2 kts 270°
2026-04-26 07:29 -26.24245 28.15703 5497 ft 0 kts 270°
2026-04-26 07:30 -26.24245 28.15624 5497 ft 30 kts 269°
2026-04-26 07:30 -26.24251 28.15230 5498 ft 71 kts 269°
2026-04-26 07:30 -26.24260 28.14537 5495 ft 106 kts 269°
2026-04-26 07:30 -26.24274 28.13625 5538 ft 126 kts 268°
2026-04-26 07:31 -26.24391 28.12626 5683 ft 134 kts 257°
2026-04-26 07:31 -26.24693 28.11627 5889 ft 140 kts 249°
2026-04-26 07:31 -26.25040 28.10593 6042 ft 150 kts 249°
2026-04-26 07:31 -26.25426 28.09468 6172 ft 162 kts 250°
2026-04-26 07:32 -26.25828 28.08265 6270 ft 170 kts 251°
2026-04-26 07:32 -26.26242 28.07006 6311 ft 177 kts 250°
2026-04-26 07:32 -26.26581 28.05691 6398 ft 177 kts 263°
2026-04-26 07:32 -26.26753 28.04320 6439 ft 182 kts 261°
2026-04-26 07:33 -26.26967 28.02920 6517 ft 183 kts 263°
2026-04-26 07:33 -26.27067 28.01512 6638 ft 183 kts 269°
2026-04-26 07:33 -26.27061 28.00073 6685 ft 186 kts 272°
2026-04-26 07:33 -26.26939 27.98668 6830 ft 183 kts 278°
2026-04-26 07:34 -26.26753 27.97259 6899 ft 186 kts 279°
2026-04-26 07:34 -26.26559 27.95847 7033 ft 183 kts 278°
2026-04-26 07:34 -26.26383 27.94452 7144 ft 183 kts 277°
2026-04-26 07:34 -26.26226 27.93027 7190 ft 185 kts 277°
2026-04-26 07:35 -26.26058 27.91622 7364 ft 180 kts 278°
2026-04-26 07:35 -26.25859 27.90235 7420 ft 183 kts 281°
2026-04-26 07:35 -26.25575 27.88832 7427 ft 188 kts 285°
2026-04-26 07:35 -26.25207 27.87419 7455 ft 191 kts 287°
2026-04-26 07:36 -26.24814 27.86016 7459 ft 193 kts 288°
2026-04-26 07:36 -26.24339 27.84603 7429 ft 198 kts 291°
2026-04-26 07:36 -26.23815 27.83168 7420 ft 201 kts 292°
2026-04-26 07:36 -26.23265 27.81741 7460 ft 201 kts 294°
2026-04-26 07:37 -26.22654 27.80329 7455 ft 204 kts 296°
2026-04-26 07:37 -26.22007 27.78903 7442 ft 208 kts 297°
2026-04-26 07:37 -26.21353 27.77461 7424 ft 210 kts 296°
2026-04-26 07:37 -26.20664 27.76031 7439 ft 210 kts 301°
2026-04-26 07:38 -26.19859 27.74667 7424 ft 212 kts 302°
2026-04-26 07:38 -26.19088 27.73294 7436 ft 212 kts 302°
2026-04-26 07:38 -26.18304 27.71896 7435 ft 213 kts 302°
2026-04-26 07:38 -26.17519 27.70493 7438 ft 214 kts 302°
2026-04-26 07:39 -26.16728 27.69086 7432 ft 215 kts 302°
2026-04-26 07:39 -26.15936 27.67675 7434 ft 215 kts 302°
2026-04-26 07:39 -26.15142 27.66259 7430 ft 216 kts 302°
2026-04-26 07:39 -26.14343 27.64838 7435 ft 217 kts 302°
2026-04-26 07:40 -26.13542 27.63420 7433 ft 217 kts 302°
2026-04-26 07:40 -26.12730 27.62004 7423 ft 217 kts 304°
2026-04-26 07:40 -26.11761 27.60719 7413 ft 217 kts 314°
2026-04-26 07:40 -26.10754 27.59506 7417 ft 216 kts 311°
2026-04-26 07:41 -26.09758 27.58251 7417 ft 216 kts 311°
2026-04-26 07:41 -26.08761 27.56995 7414 ft 216 kts 311°
2026-04-26 07:41 -26.07767 27.55741 7409 ft 216 kts 310°
2026-04-26 07:41 -26.06770 27.54490 7409 ft 216 kts 311°
2026-04-26 07:42 -26.05769 27.53243 7414 ft 216 kts 311°
2026-04-26 07:42 -26.04770 27.51998 7407 ft 216 kts 311°
2026-04-26 07:42 -26.03772 27.50756 7409 ft 215 kts 311°
2026-04-26 07:42 -26.02775 27.49511 7408 ft 215 kts 311°
2026-04-26 07:43 -26.01776 27.48267 7408 ft 216 kts 311°
2026-04-26 07:43 -26.00786 27.47038 7408 ft 216 kts 311°
2026-04-26 07:43 -25.99780 27.45794 7406 ft 216 kts 311°
2026-04-26 07:43 -25.98776 27.44551 7408 ft 216 kts 311°
2026-04-26 07:44 -25.97773 27.43308 7404 ft 216 kts 311°
2026-04-26 07:44 -25.96768 27.42066 7413 ft 216 kts 311°
2026-04-26 07:44 -25.95759 27.40823 7408 ft 217 kts 311°
2026-04-26 07:44 -25.94748 27.39580 7411 ft 217 kts 311°
2026-04-26 07:45 -25.93737 27.38336 7412 ft 217 kts 311°
2026-04-26 07:45 -25.92740 27.37105 7417 ft 217 kts 311°
2026-04-26 07:45 -25.91728 27.35859 7415 ft 217 kts 311°
2026-04-26 07:45 -25.90715 27.34613 7413 ft 217 kts 311°
2026-04-26 07:46 -25.89702 27.33374 7409 ft 217 kts 311°
2026-04-26 07:46 -25.88690 27.32136 7410 ft 217 kts 311°
2026-04-26 07:46 -25.87677 27.30896 7407 ft 217 kts 311°
2026-04-26 07:46 -25.86664 27.29655 7404 ft 217 kts 311°
2026-04-26 07:47 -25.85649 27.28417 7403 ft 217 kts 311°
2026-04-26 07:47 -25.84648 27.27195 7402 ft 217 kts 311°
2026-04-26 07:47 -25.83631 27.25953 7405 ft 217 kts 311°
2026-04-26 07:47 -25.82619 27.24713 7402 ft 217 kts 311°
2026-04-26 07:48 -25.81606 27.23473 7404 ft 217 kts 311°
2026-04-26 07:48 -25.80591 27.22233 7401 ft 217 kts 311°
2026-04-26 07:48 -25.79576 27.20991 7399 ft 217 kts 311°
2026-04-26 07:48 -25.78563 27.19754 7405 ft 216 kts 311°
2026-04-26 07:49 -25.77551 27.18517 7399 ft 216 kts 311°
2026-04-26 07:49 -25.76543 27.17283 7398 ft 216 kts 311°
2026-04-26 07:49 -25.75533 27.16053 7397 ft 216 kts 311°
2026-04-26 07:50 -25.73525 27.13615 7391 ft 215 kts 311°
2026-04-26 07:50 -25.72515 27.12388 7393 ft 215 kts 311°
2026-04-26 07:50 -25.71505 27.11163 7391 ft 215 kts 311°
2026-04-26 07:50 -25.70497 27.09940 7389 ft 215 kts 311°
2026-04-26 07:51 -25.69489 27.08719 7393 ft 215 kts 311°
2026-04-26 07:51 -25.68481 27.07499 7389 ft 214 kts 312°
2026-04-26 07:51 -25.67475 27.06280 7397 ft 214 kts 311°
2026-04-26 07:51 -25.66466 27.05060 7393 ft 215 kts 311°
2026-04-26 07:52 -25.65469 27.03856 7398 ft 215 kts 311°
2026-04-26 07:52 -25.64455 27.02632 7390 ft 216 kts 311°
2026-04-26 07:52 -25.63441 27.01407 7398 ft 216 kts 312°
2026-04-26 07:52 -25.62425 27.00179 7403 ft 216 kts 312°
2026-04-26 07:53 -25.61407 26.98949 7394 ft 217 kts 312°
2026-04-26 07:53 -25.60390 26.97718 7399 ft 217 kts 311°
2026-04-26 07:53 -25.59376 26.96484 7397 ft 216 kts 311°
2026-04-26 07:53 -25.58360 26.95253 7398 ft 217 kts 311°
2026-04-26 07:54 -25.57342 26.94023 7398 ft 217 kts 312°
2026-04-26 07:54 -25.56324 26.92792 7398 ft 217 kts 312°
2026-04-26 07:54 -25.55303 26.91561 7402 ft 217 kts 312°
2026-04-26 07:54 -25.54294 26.90343 7399 ft 218 kts 312°
2026-04-26 07:55 -25.53270 26.89110 7399 ft 218 kts 312°
2026-04-26 07:55 -25.52241 26.87872 7396 ft 218 kts 312°
2026-04-26 07:55 -25.51216 26.86634 7397 ft 218 kts 311°
2026-04-26 07:55 -25.50188 26.85396 7399 ft 219 kts 312°
2026-04-26 07:56 -25.49150 26.84162 7392 ft 219 kts 312°
2026-04-26 07:56 -25.48120 26.82926 7396 ft 218 kts 312°
2026-04-26 07:56 -25.47091 26.81694 7389 ft 218 kts 312°
2026-04-26 07:56 -25.46079 26.80482 7389 ft 217 kts 312°
2026-04-26 07:57 -25.45055 26.79251 7390 ft 217 kts 312°
2026-04-26 07:57 -25.44024 26.78023 7392 ft 218 kts 312°
2026-04-26 07:57 -25.42990 26.76796 7393 ft 218 kts 312°
2026-04-26 07:57 -25.41955 26.75567 7396 ft 218 kts 312°
2026-04-26 07:58 -25.40919 26.74338 7397 ft 218 kts 312°
2026-04-26 07:58 -25.39887 26.73109 7392 ft 218 kts 312°
2026-04-26 07:58 -25.38857 26.71882 7393 ft 218 kts 312°
2026-04-26 07:58 -25.37825 26.70658 7389 ft 218 kts 312°
2026-04-26 07:59 -25.36809 26.69449 7389 ft 217 kts 312°
2026-04-26 07:59 -25.35780 26.68224 7389 ft 217 kts 312°
2026-04-26 07:59 -25.34747 26.67003 7388 ft 217 kts 313°
2026-04-26 07:59 -25.33721 26.65781 7389 ft 217 kts 312°
2026-04-26 08:00 -25.32695 26.64561 7386 ft 217 kts 313°
2026-04-26 08:00 -25.31664 26.63346 7377 ft 216 kts 312°
2026-04-26 08:00 -25.30639 26.62130 7375 ft 216 kts 312°
2026-04-26 08:00 -25.29614 26.60915 7382 ft 216 kts 313°
2026-04-26 08:01 -25.28584 26.59707 7379 ft 216 kts 313°
2026-04-26 08:01 -25.27572 26.58510 7376 ft 216 kts 312°
2026-04-26 08:01 -25.26545 26.57300 7377 ft 216 kts 313°
2026-04-26 08:01 -25.25522 26.56090 7377 ft 215 kts 312°
2026-04-26 08:02 -25.24499 26.54883 7382 ft 215 kts 313°
2026-04-26 08:02 -25.23471 26.53680 7374 ft 215 kts 313°
2026-04-26 08:02 -25.22448 26.52473 7376 ft 215 kts 313°
2026-04-26 08:02 -25.21426 26.51266 7378 ft 215 kts 313°
2026-04-26 08:03 -25.20400 26.50063 7374 ft 215 kts 313°
2026-04-26 08:03 -25.19389 26.48873 7381 ft 215 kts 313°
2026-04-26 08:03 -25.18360 26.47667 7375 ft 216 kts 313°
2026-04-26 08:03 -25.17335 26.46461 7369 ft 215 kts 313°
2026-04-26 08:04 -25.16310 26.45257 7373 ft 215 kts 313°
2026-04-26 08:04 -25.15286 26.44051 7379 ft 215 kts 313°
2026-04-26 08:04 -25.14260 26.42848 7371 ft 216 kts 313°
2026-04-26 08:04 -25.13233 26.41641 7368 ft 216 kts 313°
2026-04-26 08:05 -25.12204 26.40437 7375 ft 216 kts 313°
2026-04-26 08:05 -25.11172 26.39231 7379 ft 216 kts 313°
2026-04-26 08:05 -25.10139 26.38027 7377 ft 216 kts 313°
2026-04-26 08:05 -25.09121 26.36839 7377 ft 216 kts 313°
2026-04-26 08:06 -25.08086 26.35634 7380 ft 216 kts 313°
2026-04-26 08:06 -25.07052 26.34428 7380 ft 216 kts 313°
2026-04-26 08:06 -25.06015 26.33224 7383 ft 217 kts 313°
2026-04-26 08:06 -25.04982 26.32017 7379 ft 216 kts 313°
2026-04-26 08:07 -25.03949 26.30812 7377 ft 216 kts 313°
2026-04-26 08:07 -25.02915 26.29611 7377 ft 216 kts 313°
2026-04-26 08:07 -25.01882 26.28408 7381 ft 216 kts 313°
2026-04-26 08:07 -25.00847 26.27207 7377 ft 216 kts 313°
2026-04-26 08:08 -24.99815 26.26005 7371 ft 216 kts 313°
2026-04-26 08:08 -24.98797 26.24822 7368 ft 216 kts 313°
2026-04-26 08:08 -24.97763 26.23623 7375 ft 216 kts 313°
2026-04-26 08:08 -24.96724 26.22426 7375 ft 216 kts 313°
2026-04-26 08:09 -24.95688 26.21226 7375 ft 216 kts 313°
2026-04-26 08:09 -24.94650 26.20027 7373 ft 216 kts 313°
2026-04-26 08:09 -24.93613 26.18828 7375 ft 216 kts 313°
2026-04-26 08:09 -24.92575 26.17628 7376 ft 216 kts 313°
2026-04-26 08:10 -24.91677 26.16592 7377 ft 216 kts 313°